Location: Saint Louis
(38.6272°N, 90.1978°W)
Time: 00:59:08
(UTC-05:00)

ISS - Pass Details

Date: 19 May 2013
Orbit: 402 x 404 km, 51.6° (Epoch: 27 May)

Event Time Altitude Azimuth Distance (km) Brightness Sun altitude
Rises 12:53:37 0° 296° (WNW) 2,364 0.5 71.1°
Reaches altitude 10° 12:56:02 10° 280° (W) 1,500 -0.3 71.1°
Drops below altitude 10° 13:01:15 10° 178° (S) 1,500 0.0 71.1°
Enters shadow 13:30:47 -58° 133° (SE) 11,341 3.5 69.7°
Exits shadow 14:06:46 -51° 330° (NNW) 10,374 3.3 65.8°
Maximum altitude 04:03:04 24° 132° (SE) 873 -1.6 -17.1°
